Theta_e
345 347 351 354 357 357 356 356 358 358 357 357 357 358 357 357 356 356 356 356 356 355 354 354 354 354 353 353 353 352 352 352 352 351 350 350 350 348 348 348 348 347 346 345 345 345 344 344 344 344 344 345 346 346 346 346 346 346 346 346 346 347 346 345 346 346 346 345 345 345 344 343 344 344 343 342 341 340 337 338 339 336 333 332 335
344 349 350 351 357 357 356 356 358 357 357 357 357 357 357 357 357 357 356 356 355 355 354 354 354 354 353 353 353 352 352 352 351 351 350 349 348 348 348 347 346 346 346 346 345 344 344 343 343 343 342 343 343 345 344 346 345 345 346 346 345 345 346 346 345 346 345 345 345 344 343 343 342 342 341 340 339 339 338 339 340 336 333 336 336
347 349 350 353 356 357 357 356 357 357 357 357 357 357 357 357 357 356 356 356 354 354 354 353 354 353 352 352 352 352 352 351 351 350 349 349 349 347 347 347 347 346 345 344 344 344 343 343 344 343 342 342 342 343 343 345 346 345 345 345 346 346 345 346 345 344 344 345 344 344 343 343 342 341 341 339 337 336 335 334 333 335 330 337 337
346 349 352 354 356 357 357 356 356 356 357 356 356 357 357 357 356 356 356 355 354 354 353 353 352 353 352 352 351 351 351 351 350 350 349 349 348 347 347 347 347 345 344 345 345 344 344 343 344 344 343 342 341 341 342 342 343 344 345 345 345 344 344 345 346 345 345 344 344 342 341 335 338 340 339 338 338 337 335 333 337 339 339 339 339
347 350 352 352 353 355 357 356 355 355 356 356 356 356 356 356 356 356 356 355 354 354 353 352 352 352 352 351 351 351 350 350 350 349 348 348 347 346 347 347 346 346 345 345 345 344 344 344 344 344 344 343 341 340 340 340 341 342 343 345 345 344 344 344 343 343 343 342 342 340 334 335 335 340 340 340 339 337 335 335 336 336 338 338 337
349 350 351 352 351 354 356 356 355 354 356 356 356 356 356 356 355 355 354 354 354 353 353 353 352 352 351 351 351 351 350 350 349 349 349 347 347 346 347 347 347 346 345 345 345 344 345 344 344 344 344 344 343 340 339 339 339 340 341 341 342 343 344 343 343 343 342 341 340 334 333 334 335 337 340 341 340 337 336 335 337 337 337 336 336
349 350 351 351 351 353 356 355 355 354 354 355 355 355 355 355 355 354 353 353 354 353 353 353 352 352 351 350 350 350 350 350 349 349 349 348 347 346 347 347 347 346 345 345 345 345 345 345 345 344 344 344 343 343 343 342 340 339 339 340 341 342 343 343 344 343 342 343 332 332 333 334 335 337 341 340 339 338 337 336 335 334 334 335 337
350 350 350 350 351 354 355 355 354 354 354 355 355 355 354 355 355 354 353 352 352 353 352 352 352 351 351 349 349 350 350 350 348 349 349 348 346 346 347 347 347 346 346 346 346 346 345 345 345 345 345 344 343 344 344 343 341 341 339 339 339 339 339 343 343 341 342 339 332 330 329 331 334 336 341 341 340 340 339 337 336 334 335 336 334
347 348 349 350 351 354 354 355 354 354 354 354 354 354 354 354 354 354 354 352 352 352 352 352 352 351 350 349 350 350 350 350 350 349 349 348 347 346 347 347 347 346 345 345 345 346 345 345 345 345 344 344 344 344 345 345 343 342 341 342 341 341 340 339 339 341 339 339 333 329 329 330 331 332 340 342 342 340 339 337 337 334 333 332 331
345 345 348 349 350 354 354 354 354 354 354 353 354 354 354 354 354 354 353 353 353 352 353 352 351 351 351 350 350 350 350 350 350 349 348 347 347 346 346 347 347 346 346 346 345 346 346 346 345 345 345 344 345 345 345 345 345 345 345 344 344 343 344 343 343 342 336 336 331 329 330 337 330 336 340 342 342 340 338 336 337 334 333 332 331
344 345 347 349 351 354 354 355 354 354 354 354 354 354 354 354 353 353 353 353 353 352 352 352 350 350 350 350 350 350 350 350 350 349 348 347 347 347 346 346 346 346 346 346 345 345 346 346 345 345 345 345 345 345 345 346 346 346 346 345 345 345 345 345 343 335 334 332 329 329 337 337 327 333 341 341 339 337 336 335 335 334 332 330 331
344 345 347 350 355 354 354 355 354 353 353 354 353 353 353 353 353 353 353 352 352 352 352 351 349 349 350 350 350 350 350 350 349 349 348 348 347 347 346 346 346 346 346 346 345 345 346 346 344 344 344 344 344 345 345 346 347 347 347 347 346 346 346 344 340 331 331 331 330 331 332 330 328 335 341 340 338 337 335 335 335 334 333 333 333
343 345 348 350 351 354 354 355 354 353 353 353 353 353 353 353 353 353 352 352 352 352 351 350 350 350 349 350 350 349 349 349 349 348 348 348 347 347 347 346 345 346 346 345 344 345 346 346 345 344 344 343 344 345 346 347 347 347 346 347 347 346 345 342 335 331 331 330 331 330 327 326 330 338 340 338 335 336 334 333 335 334 334 333 332
341 341 346 350 351 355 354 354 354 354 353 353 353 353 352 352 352 352 352 352 351 351 351 350 350 350 350 350 350 349 349 349 349 348 348 348 347 347 346 346 346 345 345 345 344 345 346 345 344 344 343 343 344 345 346 346 347 347 347 347 346 346 346 340 334 328 329 327 328 326 325 329 329 336 335 334 336 334 333 332 335 334 333 332 331
341 338 339 347 350 349 355 354 354 354 354 354 354 353 352 352 352 351 352 352 351 351 351 351 350 350 350 350 350 349 349 349 348 348 348 348 347 347 347 347 346 345 345 344 344 346 345 344 344 344 343 344 343 344 346 347 346 347 347 347 347 347 347 341 337 327 326 328 327 329 326 326 337 336 335 335 333 333 333 333 333 332 332 332 331
339 339 341 346 349 349 351 353 353 353 353 353 353 352 352 351 351 352 352 352 351 351 351 350 350 350 350 350 350 349 349 349 348 348 348 348 347 347 347 347 346 346 345 343 345 346 345 344 344 343 344 344 344 345 345 345 346 347 347 347 347 347 348 346 335 331 325 326 327 328 325 328 336 336 335 333 332 333 333 333 333 332 332 331 330
337 340 338 343 347 347 348 350 351 353 352 352 352 352 351 352 352 352 352 352 351 351 350 351 350 350 350 350 350 350 349 349 348 348 348 348 347 347 346 346 346 345 345 344 347 347 346 345 344 343 343 344 344 344 346 346 346 346 346 347 347 347 347 347 335 325 325 329 330 327 326 328 335 336 335 334 332 333 334 333 332 332 331 331 330
336 337 338 343 346 346 347 347 348 349 348 351 352 352 352 353 352 352 351 351 350 351 351 351 350 350 350 351 350 350 349 349 348 348 348 348 347 347 347 346 346 344 345 346 346 346 346 345 344 342 343 343 343 345 345 345 345 346 346 347 347 347 348 347 336 324 326 333 327 330 328 336 336 336 335 334 334 334 334 333 333 332 331 330 331
336 336 337 340 344 345 346 347 347 347 347 346 347 350 353 353 352 351 351 350 350 350 350 350 350 350 350 351 350 350 349 349 349 348 348 348 348 347 346 345 345 345 344 346 346 345 345 345 344 343 342 344 344 345 346 346 346 346 347 347 347 348 346 342 337 326 329 330 327 327 326 337 335 336 336 336 335 334 333 333 331 331 332 330 329
334 335 336 336 342 344 344 346 346 346 345 344 344 346 350 352 352 351 351 351 350 350 350 350 350 351 351 351 350 349 348 346 349 347 348 348 348 346 345 344 344 344 344 344 343 344 345 344 344 342 342 342 345 345 346 346 347 347 347 348 349 347 336 334 335 326 326 325 330 326 335 337 336 336 336 335 334 334 333 333 332 331 331 330 330
333 333 334 335 337 342 344 344 345 345 345 344 343 344 348 350 350 351 351 351 351 351 350 350 349 349 350 349 349 346 344 344 346 345 347 347 348 347 345 344 343 343 343 343 342 343 344 344 343 342 343 344 344 345 345 346 346 346 347 349 349 336 336 329 327 326 325 329 331 326 337 337 335 335 335 335 334 333 333 332 332 333 332 330 330
331 332 333 334 335 338 342 343 344 345 345 344 344 345 347 348 344 346 347 348 350 350 348 346 350 346 350 347 344 346 342 341 343 348 346 346 346 347 345 344 343 342 342 343 342 343 344 344 343 343 343 344 344 338 338 342 344 345 347 348 340 335 334 327 326 326 328 328 331 330 339 337 336 334 334 335 335 334 333 332 332 332 332 330 329
330 332 333 334 335 336 341 342 342 344 344 342 345 345 345 344 343 344 347 349 349 348 345 348 344 344 345 344 345 343 341 341 343 346 347 347 346 346 345 344 344 343 343 343 343 343 344 344 343 343 344 344 339 333 335 335 334 341 341 338 337 335 335 329 327 327 327 328 327 336 339 338 337 335 334 334 335 334 333 332 332 332 332 331 330
331 331 332 334 335 336 338 340 340 341 340 339 341 343 342 343 343 342 344 345 344 346 344 344 344 344 343 342 342 342 342 341 349 349 348 345 344 346 345 344 344 344 343 343 344 344 345 344 343 344 346 341 332 333 333 332 331 332 334 335 335 335 335 330 328 326 326 332 328 340 339 338 336 336 336 336 335 334 332 332 332 332 332 331 329
331 331 333 332 334 336 337 337 340 338 338 337 340 341 341 342 342 341 342 342 342 342 341 341 342 343 342 342 342 343 341 340 343 344 342 341 338 338 339 337 336 335 343 334 333 336 338 334 333 337 335 334 333 332 330 329 330 331 333 335 336 336 336 332 328 327 327 330 330 340 338 337 336 336 336 336 335 334 332 332 332 332 332 331 329
331 330 331 331 334 337 336 337 339 337 337 336 338 342 343 340 340 340 340 340 340 339 339 339 340 341 341 342 343 341 339 339 340 340 340 339 338 336 337 335 333 334 340 335 332 331 331 332 332 334 333 332 332 331 329 334 329 328 331 334 335 336 336 330 329 329 329 329 333 341 338 337 336 336 336 335 335 333 332 332 332 332 333 332 330
329 329 330 332 334 337 336 337 338 336 337 337 338 341 339 339 339 339 339 338 339 338 338 339 339 341 341 343 342 339 338 337 338 338 337 338 338 337 336 335 335 334 337 336 334 332 332 332 332 333 331 329 328 328 328 328 328 328 330 333 334 335 335 330 330 329 329 330 337 341 339 337 336 336 335 335 335 334 332 334 334 334 333 332 332
329 329 330 331 335 336 336 337 337 336 336 337 337 338 337 337 338 344 341 342 340 338 338 339 340 341 341 342 343 339 338 337 338 337 337 337 338 338 336 335 335 335 336 337 337 334 332 333 333 332 331 330 329 326 325 326 326 327 329 331 333 335 334 330 330 330 330 330 334 340 339 337 336 335 335 334 335 334 333 334 334 334 333 332 331
328 329 330 331 334 337 336 336 337 336 335 336 336 336 335 336 338 338 337 344 339 338 339 340 340 341 341 342 342 338 338 337 337 337 336 336 337 337 336 335 335 336 336 335 336 335 332 332 332 331 330 329 328 326 325 326 325 326 328 331 333 334 331 331 331 330 330 332 333 337 339 338 336 336 335 335 335 334 335 334 335 334 334 333 332
329 330 330 330 333 336 336 336 337 335 335 336 335 335 335 335 336 337 336 343 338 339 340 340 340 341 340 341 341 338 337 337 337 337 336 336 337 337 337 336 335 335 334 333 334 333 332 332 331 331 331 330 329 329 330 327 327 327 327 330 332 331 331 331 331 331 332 332 333 336 340 338 337 336 336 336 336 335 336 334 335 335 335 333 333
330 329 330 330 334 336 336 337 337 337 335 335 335 334 335 335 337 337 337 339 339 340 340 339 339 339 340 340 339 339 337 336 337 338 337 337 336 335 335 336 335 334 333 333 333 332 331 332 332 331 330 330 330 330 330 329 328 328 332 332 332 330 330 332 332 332 332 332 333 334 338 340 338 337 337 337 336 336 337 335 335 336 335 334 334
329 329 330 331 333 334 336 337 337 336 335 335 337 334 334 335 338 337 337 339 339 339 339 339 340 338 339 338 338 338 339 336 336 337 336 335 335 334 334 334 334 334 334 333 332 333 331 332 334 333 332 331 331 332 333 328 330 331 333 335 334 332 331 330 332 332 332 332 333 334 335 336 339 338 337 337 336 337 336 337 337 336 335 336 336
330 331 331 332 332 334 335 336 338 337 334 336 336 335 335 336 338 338 338 339 339 339 338 338 338 337 338 337 337 338 339 336 336 338 342 337 336 334 334 334 334 334 333 333 332 332 332 331 331 334 332 332 334 333 335 332 332 334 335 338 336 334 334 333 332 332 333 333 333 334 334 336 335 338 338 338 337 337 337 337 337 337 337 338 338
329 330 331 331 334 334 336 336 337 338 336 337 337 336 335 337 339 339 339 339 339 338 338 338 338 337 337 337 337 338 338 336 336 337 338 336 336 337 334 333 333 332 332 332 331 331 331 331 331 332 340 333 332 334 332 333 333 334 336 337 337 335 335 337 333 332 333 333 333 334 334 335 334 334 336 339 338 338 338 338 338 338 338 338 338
331 330 331 332 334 334 336 335 339 339 339 338 338 336 335 337 338 338 338 338 338 338 338 337 337 336 336 337 337 339 338 337 337 336 335 336 337 336 335 335 335 334 332 331 331 330 330 332 332 330 330 330 333 336 331 333 335 336 336 337 339 337 334 335 335 334 333 333 333 333 334 334 334 334 335 333 340 339 339 339 339 339 339 339 339
330 330 331 332 333 334 336 335 338 339 339 338 336 336 335 336 337 340 337 338 338 338 338 337 337 336 336 336 336 339 337 338 338 337 335 336 336 335 334 336 337 336 334 329 331 330 329 332 334 330 330 329 333 331 332 333 335 335 334 335 336 340 332 332 334 335 334 333 332 332 333 334 334 333 337 333 333 336 340 339 339 339 339 339 339
331 330 330 331 332 333 337 335 337 337 337 337 335 335 335 335 336 338 337 337 337 337 338 338 337 336 335 335 335 338 337 338 338 337 335 336 335 335 334 334 337 334 333 329 331 331 330 332 330 334 329 329 330 331 331 334 333 333 333 332 333 335 330 332 332 334 337 332 332 332 332 333 335 340 336 334 333 333 338 340 340 340 339 339 340
333 332 332 332 332 334 336 336 337 337 336 335 334 334 334 334 335 336 339 337 337 337 338 338 337 336 335 335 336 337 337 336 337 337 335 335 335 335 334 334 335 334 332 329 329 332 330 330 328 330 331 329 329 330 330 331 335 333 331 332 332 331 330 330 334 341 333 333 332 332 332 332 334 336 336 335 334 334 334 338 341 341 340 340 340
334 333 333 333 333 334 336 337 337 336 335 335 334 333 333 333 332 334 336 336 336 337 338 338 337 336 335 335 336 337 339 336 336 337 336 336 335 334 333 334 335 333 333 331 327 329 330 328 328 327 331 329 329 330 331 332 333 332 331 331 331 331 331 333 338 334 332 334 338 337 336 333 334 336 336 335 334 333 333 332 333 336 338 342 341
334 334 334 334 333 335 335 336 336 336 334 334 335 335 335 333 332 335 336 337 336 338 338 338 337 337 337 336 336 336 338 337 336 337 336 337 334 334 332 333 334 334 332 331 328 327 328 329 328 327 326 330 332 331 330 332 329 328 334 331 331 332 332 336 334 334 336 334 333 333 333 333 335 336 337 336 335 334 333 332 334 333 334 337 340
333 333 333 333 333 334 335 335 336 336 334 333 333 333 332 332 333 334 335 336 336 338 338 339 338 338 338 337 336 337 337 338 339 337 336 339 336 333 333 333 334 335 333 331 330 328 327 330 330 331 327 325 325 329 331 331 328 325 325 325 328 331 335 338 334 333 334 333 333 332 332 332 333 334 334 334 334 335 334 333 333 333 332 332 333
331 332 332 332 333 334 335 336 336 336 335 333 334 334 334 334 332 333 335 336 337 337 337 338 339 338 338 337 337 337 337 338 340 338 337 336 335 333 333 333 333 335 335 335 332 341 333 331 330 327 330 325 324 329 329 329 323 321 322 322 321 324 328 333 331 333 333 333 333 331 331 332 332 333 333 333 333 335 336 335 334 334 333 332 331
331 331 332 332 332 333 334 334 335 335 335 334 334 334 335 335 335 334 335 335 338 338 339 340 340 338 338 337 337 336 337 337 338 339 337 335 335 334 334 333 333 336 336 334 334 333 331 332 330 327 325 326 327 330 327 326 322 323 323 321 316 315 320 320 326 331 334 332 332 332 333 333 333 333 333 332 332 333 334 334 333 334 332 331 332
331 330 331 331 332 333 333 333 334 335 336 335 335 335 335 334 334 333 334 335 335 338 338 339 338 336 335 336 336 336 336 336 336 336 338 336 335 335 334 333 332 336 334 332 332 332 330 329 330 330 327 322 323 324 328 326 325 324 318 318 319 315 312 315 319 326 334 333 333 332 334 334 334 333 331 332 332 332 331 335 336 335 331 332 332
331 330 331 331 332 332 332 333 334 335 336 336 335 333 335 333 334 334 335 334 334 335 334 334 335 335 334 334 334 335 336 335 336 336 338 335 335 335 335 335 335 335 335 332 332 333 333 331 330 330 327 325 321 323 327 327 327 328 324 321 318 315 313 316 320 319 331 331 332 333 336 334 333 333 333 334 334 334 333 332 334 336 335 334 333
331 332 332 332 332 332 332 332 333 334 335 335 335 334 334 332 332 331 329 330 330 331 331 332 332 332 332 333 334 335 335 334 334 335 336 338 334 335 333 332 333 332 332 332 333 332 332 332 331 330 327 325 325 324 323 328 328 331 328 323 320 317 315 319 318 314 323 327 327 332 334 334 332 333 333 333 334 334 336 334 334 334 335 334 334
332 333 333 332 332 332 332 332 332 332 334 335 336 336 333 332 332 332 331 331 330 331 334 334 333 332 333 332 333 334 334 334 334 335 335 336 335 335 334 333 333 332 334 332 333 334 334 334 333 330 330 329 326 323 324 324 324 326 331 330 330 328 323 319 316 318 315 319 324 328 331 334 333 332 332 334 335 334 334 335 334 333 334 335 335
331 333 333 333 332 332 332 331 332 332 333 334 335 335 333 332 331 331 331 330 330 330 332 331 331 332 331 331 332 333 334 334 334 334 335 336 336 334 333 331 331 333 335 333 334 334 334 332 334 332 331 330 328 327 324 324 324 322 329 328 329 332 330 327 323 320 316 315 316 323 329 331 331 333 334 334 335 333 333 334 334 333 333 334 334
331 331 333 333 333 332 333 332 332 332 332 333 333 334 334 332 331 331 330 331 330 329 331 332 330 333 329 330 331 331 333 334 334 334 334 335 337 335 335 333 332 333 337 335 334 335 334 332 331 330 330 330 329 328 326 326 326 324 327 328 328 327 329 327 328 324 321 314 314 316 320 328 329 331 332 332 333 335 335 336 336 336 336 334 336
332 333 332 333 333 333 333 332 332 333 333 332 333 333 333 333 330 330 329 329 331 329 329 328 329 330 328 329 330 331 331 331 332 333 334 334 334 335 335 335 334 335 339 335 334 334 333 332 332 330 329 329 329 330 329 328 328 326 327 328 326 327 330 328 326 323 323 319 315 315 318 319 320 322 328 331 333 335 334 334 335 336 336 334 335
331 332 331 331 332 333 333 332 333 334 333 332 332 332 332 332 331 330 329 329 329 328 327 327 327 328 328 328 329 331 331 331 332 332 332 334 334 336 335 335 334 336 338 336 333 334 333 332 331 330 330 329 329 329 329 328 330 328 327 327 327 328 327 325 324 322 320 317 317 318 319 323 322 320 322 328 331 335 334 334 334 335 336 334 334
Wind_Speed
8 7 7 10 6 10 10 11 12 13 13 14 14 14 14 13 13 13 13 14 14 13 14 13 13 13 13 13 14 14 14 14 14 15 15 15 14 13 13 15 14 13 13 12 12 12 12 11 11 11 11 11 11 11 12 12 12 13 13 13 13 14 15 15 16 15 15 15 14 14 13 14 14 14 15 14 13 13 13 12 10 6 4 8 11
12 6 7 10 12 12 13 13 13 12 12 13 14 14 14 14 13 12 13 13 13 13 14 13 13 12 12 12 13 13 13 13 14 14 15 14 13 14 14 15 14 13 13 13 13 12 11 11 11 10 10 10 11 11 12 12 13 13 13 13 13 14 14 14 15 14 15 14 14 14 14 12 13 14 13 13 13 13 13 13 14 7 4 11 12
6 7 5 8 13 11 12 15 14 12 12 12 12 13 14 13 13 12 13 13 13 13 13 13 13 12 12 12 13 12 13 13 13 14 14 14 13 14 14 15 15 14 13 13 12 12 12 12 12 11 11 11 11 10 11 12 13 12 12 12 12 13 14 14 15 15 14 15 14 14 14 15 14 13 14 14 13 13 12 12 10 7 6 12 11
9 6 6 8 11 10 10 13 14 13 12 11 12 12 13 13 13 12 12 12 13 13 13 13 13 12 12 12 12 12 12 13 13 13 13 13 13 13 14 15 15 14 13 13 12 11 11 11 11 11 10 10 10 10 10 7 10 10 12 11 11 12 13 13 14 14 14 13 13 10 4 5 9 13 13 14 14 13 12 11 12 13 13 12 13
8 7 7 6 6 8 9 11 13 13 13 13 13 13 13 13 13 12 12 13 13 13 12 12 12 12 12 12 12 12 12 13 13 13 13 12 12 14 14 15 15 14 13 12 11 10 10 9 9 10 10 10 9 9 9 8 9 10 10 11 12 13 13 13 13 13 13 13 13 7 4 4 4 12 13 14 14 13 12 13 12 13 12 13 11
7 7 6 6 6 7 10 11 13 14 13 13 14 14 13 13 13 13 13 13 12 13 12 12 12 12 12 12 12 12 12 13 14 13 12 12 12 13 14 14 15 14 13 12 11 9 8 8 8 8 9 9 8 8 9 9 9 9 7 8 10 13 12 12 13 14 13 12 8 3 3 3 3 6 14 14 14 13 13 13 12 11 11 11 10
7 6 6 6 5 7 11 11 12 13 14 14 14 14 14 14 13 13 12 12 13 12 12 12 12 11 11 12 12 12 12 12 13 13 13 13 12 12 13 13 14 14 13 12 10 9 8 6 6 6 7 8 8 8 8 8 9 9 8 8 9 10 11 10 13 11 7 4 2 3 3 3 3 4 13 13 13 14 13 13 11 10 9 10 11
5 5 6 5 4 9 12 11 12 13 14 14 15 14 14 14 13 13 14 12 11 12 11 12 12 11 11 11 12 12 12 12 13 13 12 11 12 12 12 13 13 14 12 11 10 9 7 5 4 5 5 7 7 7 8 8 9 9 8 8 8 7 6 9 7 4 5 3 3 2 3 3 3 3 12 13 13 14 13 12 11 10 10 9 9
6 5 6 6 5 13 13 11 11 13 13 14 14 15 14 13 13 13 13 13 12 12 10 11 11 11 11 12 12 12 12 13 12 12 12 12 12 12 12 12 13 13 12 10 9 8 5 5 4 4 5 6 7 7 8 8 8 8 8 7 7 6 5 4 6 4 5 2 2 2 2 3 3 3 10 13 12 13 13 11 9 10 9 8 7
6 4 5 5 5 13 12 11 10 12 13 13 13 13 13 13 12 13 13 13 13 13 11 10 11 12 11 12 12 12 12 13 12 11 11 12 11 11 11 11 12 12 11 10 9 7 5 3 3 4 5 6 7 7 8 7 7 7 7 7 6 4 3 1 2 4 4 4 3 3 2 5 3 4 10 13 14 13 13 12 8 7 7 8 9
6 5 5 5 6 12 12 9 11 12 12 12 13 13 13 12 12 12 12 12 13 13 11 11 10 11 11 11 11 11 12 12 12 11 11 12 12 11 10 10 10 10 10 10 9 7 5 3 2 3 5 6 7 7 8 8 7 7 7 7 7 6 4 3 1 2 5 6 5 3 4 8 4 3 12 14 13 12 11 10 10 10 9 6 7
6 6 6 5 11 13 10 9 10 11 12 12 12 12 12 12 12 12 12 12 12 12 12 12 10 10 11 11 11 11 12 13 12 12 11 12 12 11 10 9 9 9 9 9 9 8 5 3 2 3 4 5 7 7 8 8 8 7 7 7 8 7 8 7 4 6 7 7 5 3 3 2 4 7 13 14 13 12 11 10 10 10 9 9 8
6 6 6 5 5 11 10 9 10 11 12 12 12 13 12 12 12 12 12 12 12 11 12 12 11 9 11 11 11 11 12 12 12 12 11 11 11 11 11 10 9 8 9 8 7 7 5 3 2 1 3 5 6 7 8 8 8 7 7 8 9 9 10 10 4 6 6 5 4 4 4 3 2 10 13 12 11 10 9 9 10 9 9 9 8
5 6 5 6 4 12 13 12 12 12 13 13 13 13 12 12 12 12 12 13 13 13 12 14 12 10 11 12 12 12 13 13 12 11 11 11 11 10 11 10 10 8 8 8 7 6 4 3 2 1 2 4 7 8 8 8 8 8 8 8 8 9 11 8 7 4 4 4 4 4 4 3 3 9 9 10 11 10 8 8 10 9 9 8 8
9 9 8 9 11 11 19 17 16 14 13 13 12 13 13 13 12 13 13 13 14 13 13 12 13 11 12 12 13 13 13 13 13 12 11 11 10 10 10 10 10 8 6 8 8 7 4 3 1 0 3 5 6 7 8 8 8 8 7 7 7 8 10 4 4 4 5 3 2 4 4 3 8 11 10 9 9 8 9 10 10 9 9 8 6
9 11 14 12 12 11 10 15 17 16 14 14 13 14 14 14 14 14 14 14 14 15 13 12 12 12 13 13 13 14 14 13 13 12 11 11 11 10 10 10 9 8 7 7 9 8 5 2 1 1 3 4 6 7 7 8 8 7 7 6 6 8 8 4 2 3 4 3 2 3 4 3 12 10 10 8 7 8 9 8 8 8 8 7 7
12 13 11 8 6 5 6 7 10 16 15 16 15 15 15 15 15 15 15 15 15 15 13 12 11 10 13 14 14 13 14 14 13 12 12 11 11 10 10 10 9 9 8 6 9 7 5 3 1 1 3 5 6 7 8 8 8 8 9 8 8 7 5 5 4 5 4 3 2 3 4 3 9 10 10 9 8 8 10 9 7 8 8 8 8
13 7 3 4 7 6 7 7 10 10 9 14 16 16 15 15 16 15 15 16 16 15 13 11 11 10 12 14 14 14 14 14 13 13 12 11 10 10 9 9 8 8 7 7 7 6 4 3 1 1 3 4 5 6 7 8 8 8 8 7 6 5 5 4 3 6 4 4 3 2 2 5 11 11 10 9 10 10 9 8 8 7 7 7 7
4 4 3 2 7 8 7 7 6 7 8 6 6 10 16 15 16 15 16 16 16 16 15 13 12 11 14 15 14 14 14 14 13 13 11 11 10 9 8 8 9 8 9 8 7 5 4 3 1 1 2 5 5 6 6 7 7 7 7 7 5 5 3 1 3 6 5 4 4 3 3 9 10 11 11 11 10 9 9 8 8 7 8 7 5
4 5 3 2 6 9 7 7 7 8 7 6 6 6 12 16 16 16 16 16 17 16 16 15 14 13 15 15 15 12 12 10 14 10 12 11 10 6 8 7 7 8 9 8 7 6 4 3 2 1 3 5 7 6 7 7 8 8 8 7 6 6 1 1 3 7 5 5 4 4 6 12 10 10 12 12 11 9 8 8 8 7 7 6 6
2 3 5 5 3 7 9 7 8 8 6 6 5 6 9 14 13 16 17 16 16 16 15 15 15 13 12 13 13 8 4 5 8 5 10 6 8 9 8 7 7 7 8 8 7 6 5 4 2 2 3 5 8 9 8 8 8 8 9 8 6 4 4 4 5 5 5 5 4 5 9 12 11 10 10 10 10 8 8 8 7 8 7 6 5
5 4 3 4 4 4 9 9 7 7 5 6 5 5 5 10 5 7 7 11 13 13 11 7 10 6 12 9 5 4 4 3 4 7 4 6 6 9 8 8 7 7 7 8 7 6 5 4 3 3 3 5 8 5 4 6 9 8 8 9 5 1 3 5 5 4 4 4 4 6 12 12 11 11 11 10 11 9 9 8 8 7 7 6 4
6 5 5 7 6 4 6 8 6 5 5 4 4 5 5 5 5 5 5 10 9 9 6 7 4 6 5 5 5 4 4 3 4 5 4 8 6 9 8 8 8 7 8 7 7 7 6 4 3 4 4 6 4 4 5 5 5 9 7 4 4 0 1 5 4 4 5 5 5 8 12 12 11 11 11 11 10 9 9 8 8 7 6 5 5
8 8 8 5 7 6 5 5 5 6 6 5 3 4 4 5 4 4 4 4 5 6 5 4 5 5 6 5 5 5 5 4 8 13 10 5 5 8 8 8 8 8 8 6 6 6 6 4 3 5 4 3 2 3 4 5 5 5 6 5 2 1 2 5 5 5 5 5 5 10 12 12 11 11 11 11 10 10 9 8 9 7 7 6 5
7 6 6 7 8 7 5 4 5 6 6 5 3 4 4 5 5 4 4 4 4 5 5 5 6 6 6 5 5 4 4 4 3 4 3 4 2 3 3 3 3 3 6 3 2 1 1 1 1 3 4 3 3 4 3 4 3 4 5 5 3 2 2 4 5 5 4 3 4 12 12 12 11 11 10 10 10 10 9 8 8 8 7 6 5
6 7 7 7 8 7 5 5 5 6 6 6 5 5 6 5 5 4 4 4 4 4 4 4 6 7 5 5 5 5 4 4 3 4 4 4 3 3 4 3 3 3 3 4 3 2 2 1 2 4 5 3 3 3 4 3 4 4 5 5 6 2 3 4 4 5 5 4 5 13 12 11 11 11 10 10 10 10 9 8 8 8 7 6 6
7 6 7 7 7 6 6 5 5 7 6 5 5 5 5 5 5 5 5 5 4 5 5 4 5 6 6 6 6 5 5 5 5 5 5 5 5 5 5 5 4 4 3 3 3 2 3 3 3 4 5 3 3 3 4 4 3 5 5 5 5 2 4 5 5 5 5 5 6 13 11 11 11 11 10 10 10 10 9 8 9 8 7 7 7
5 6 7 7 8 8 7 6 5 7 6 6 6 5 5 5 5 6 6 6 6 6 5 4 5 6 6 6 6 6 6 6 6 5 5 5 5 5 5 5 4 4 3 4 3 4 4 4 3 3 5 4 4 3 4 5 4 4 6 6 6 4 4 5 5 5 5 5 4 9 11 12 11 11 10 11 10 10 9 7 7 8 8 7 7
7 7 7 7 7 7 7 8 6 7 6 7 7 5 5 5 5 5 5 5 5 5 5 5 4 5 6 7 6 7 5 5 5 5 4 5 4 4 5 5 5 5 4 4 4 4 5 5 5 4 5 4 4 4 3 5 4 5 6 7 6 4 4 4 5 5 4 5 5 7 12 13 12 11 11 11 11 11 10 9 9 9 9 8 8
10 9 8 7 6 5 8 8 7 8 7 7 6 6 6 6 6 6 6 5 5 5 4 5 4 5 6 6 6 6 6 6 6 5 6 5 5 4 5 5 5 5 4 5 5 5 6 5 5 5 4 5 6 6 5 5 6 5 4 6 5 1 4 5 5 5 5 5 5 5 13 13 13 12 12 11 11 11 11 11 10 10 10 10 9
8 9 7 7 7 6 7 6 6 6 7 7 6 7 6 6 7 6 5 5 5 5 5 5 5 4 5 6 6 5 6 6 6 6 5 5 5 5 5 4 5 5 5 6 4 5 5 5 5 5 5 5 6 6 5 6 4 3 3 2 1 1 6 5 5 5 5 5 5 4 7 14 13 13 12 12 11 11 11 11 11 11 11 10 10
9 9 8 7 7 8 7 6 7 6 6 6 6 7 7 8 8 6 6 5 6 6 5 6 5 5 4 4 5 6 6 6 6 4 5 5 5 5 5 5 6 5 6 6 5 5 6 6 6 5 5 5 4 6 3 3 2 3 2 3 4 5 3 6 5 5 4 4 4 4 5 6 13 13 12 12 12 12 12 12 12 12 12 12 11
7 10 9 9 10 9 8 7 6 6 7 7 7 7 7 7 8 7 7 6 6 6 6 6 6 5 4 4 5 6 6 6 6 6 6 5 5 6 6 7 7 6 5 6 6 5 5 5 5 5 5 4 2 3 2 3 4 2 3 4 5 4 3 4 5 5 5 4 4 5 4 5 5 11 13 13 13 13 13 13 13 13 13 12 12
8 6 7 9 8 7 7 6 7 8 9 8 7 7 7 7 6 6 6 7 6 6 6 6 6 6 5 5 5 6 6 6 6 5 5 5 4 5 7 8 6 5 6 6 6 6 7 7 7 6 4 5 4 4 4 4 3 3 4 2 5 3 2 4 3 5 4 4 5 4 5 5 5 5 6 12 14 13 14 14 14 13 13 12 12
8 8 11 11 10 9 8 7 9 9 9 8 9 8 7 6 6 6 6 7 6 6 6 5 6 6 6 5 5 5 6 6 6 6 5 5 4 4 4 5 5 5 6 7 7 8 8 6 2 1 1 3 3 2 4 5 4 4 3 3 4 4 2 3 3 4 5 4 5 4 5 5 5 5 5 5 9 14 15 14 14 13 13 12 12
12 12 10 9 10 10 10 10 10 10 9 9 8 7 8 7 6 6 6 6 6 6 6 6 5 5 6 5 5 5 6 6 6 5 6 4 4 4 4 3 3 2 1 3 3 5 4 4 2 2 0 1 3 2 2 4 3 4 2 3 3 2 3 2 2 3 4 5 5 5 5 5 5 5 5 5 5 6 13 13 12 12 12 12 12
11 11 11 10 9 10 11 11 12 11 9 8 7 7 7 7 7 6 6 5 6 5 5 4 5 5 5 5 6 5 5 6 5 5 5 4 4 4 3 2 1 1 2 2 4 5 4 4 2 2 2 2 3 3 3 3 3 2 1 1 1 2 3 2 2 2 2 4 5 5 5 5 5 6 5 5 5 5 8 14 13 13 13 13 12
11 13 12 13 12 11 10 10 9 9 8 8 8 7 7 6 6 5 5 5 5 4 4 4 5 5 5 5 6 5 5 5 5 5 4 3 4 4 2 1 1 1 2 2 3 4 4 5 4 2 4 3 2 3 3 3 3 2 1 1 1 1 1 2 2 1 2 2 3 4 6 6 5 5 6 5 5 6 5 7 12 14 15 14 13
10 12 12 11 10 10 8 9 9 8 7 7 6 5 5 4 4 4 5 5 5 5 5 5 5 4 5 5 5 5 5 5 4 4 4 4 4 3 2 1 1 2 1 1 2 2 3 3 4 3 1 3 4 4 5 4 3 2 2 1 0 1 1 1 1 1 1 2 2 1 3 6 5 4 5 6 6 6 6 6 6 6 8 16 14
11 11 12 11 10 9 8 8 8 8 7 6 6 6 5 5 6 5 6 6 5 6 6 6 5 5 5 5 4 4 4 5 5 5 4 4 3 3 2 2 1 2 1 1 3 4 4 3 3 3 3 2 1 2 3 3 2 1 0 0 0 0 0 1 1 1 1 1 1 1 2 2 5 5 5 5 5 5 6 6 5 4 2 6 11
11 12 12 11 11 11 11 11 9 9 8 7 7 8 9 8 7 8 8 7 7 6 6 5 5 5 6 6 6 5 5 5 5 5 5 5 3 2 2 3 2 2 2 2 3 3 3 3 3 3 4 4 1 2 2 4 4 1 1 1 1 1 1 1 3 2 2 1 1 2 2 3 3 4 5 4 4 5 6 5 6 4 5 5 5
11 12 14 13 11 11 13 11 9 9 9 9 8 8 8 9 9 9 7 7 8 8 8 7 6 5 6 6 5 5 5 5 4 5 5 5 4 3 3 4 3 3 3 2 2 2 3 3 3 1 0 4 2 1 2 4 1 3 2 1 3 4 1 1 1 1 2 2 2 2 2 4 5 5 4 4 5 6 6 4 3 4 4 4 3
14 14 12 12 12 11 11 11 10 10 10 10 9 9 8 8 8 6 7 4 3 5 5 5 5 5 5 5 4 4 4 4 4 4 5 4 5 4 4 3 3 2 2 2 2 1 2 3 4 5 1 2 2 0 1 1 3 2 2 3 2 1 2 2 1 2 2 2 2 3 4 4 6 5 5 5 5 5 2 1 3 3 3 3 3
11 10 11 13 11 11 11 11 11 11 10 11 11 8 8 6 4 4 4 4 3 5 4 4 5 5 6 5 4 4 4 5 4 3 4 4 4 4 3 2 3 2 2 3 2 2 2 3 3 4 4 3 0 0 0 0 4 6 0 1 2 1 2 1 2 2 2 2 3 4 4 5 5 4 2 4 3 1 2 2 4 4 2 3 3
12 12 12 13 11 14 13 13 11 11 10 10 10 8 8 6 5 5 5 3 2 5 5 5 6 7 5 5 6 5 5 5 5 5 4 3 3 3 2 0 0 1 3 3 3 4 3 4 4 4 4 6 4 1 1 1 2 1 5 3 2 1 2 1 1 2 0 1 2 3 4 4 4 3 3 5 3 3 3 3 3 2 3 3 3
12 12 12 12 11 11 11 11 10 10 10 11 10 8 8 8 8 8 9 8 7 8 9 8 7 7 8 5 4 5 4 4 4 3 3 2 2 2 3 5 4 3 5 7 6 3 3 4 5 5 5 3 5 4 2 1 1 1 1 2 3 2 2 1 0 1 1 1 2 2 4 3 3 4 4 5 4 3 2 3 2 2 2 2 2
11 9 9 9 10 11 11 11 10 10 10 11 10 9 8 8 10 9 9 8 8 7 5 6 6 5 4 6 5 4 4 4 4 4 4 3 3 4 5 5 4 5 5 5 5 6 5 5 4 4 5 4 4 4 5 4 1 1 1 1 1 1 2 2 1 0 1 2 1 3 4 4 3 3 4 3 3 2 2 3 3 2 1 1 1
9 9 9 8 10 10 11 11 9 10 10 10 11 10 9 9 9 8 8 8 8 7 7 5 4 4 5 5 5 4 5 5 5 5 4 4 4 4 4 4 5 4 4 5 6 5 4 3 4 3 3 4 5 6 5 5 5 3 3 3 1 1 1 1 2 2 1 0 1 3 3 3 3 4 4 3 3 3 3 3 1 2 3 2 2
9 10 10 10 9 8 9 9 9 9 9 11 11 10 9 9 9 8 8 7 6 5 5 4 5 5 5 4 5 5 5 5 5 4 4 4 4 4 5 5 5 5 5 5 5 5 6 6 4 3 4 3 4 3 4 5 5 4 4 2 2 1 1 1 1 2 2 2 4 3 3 1 1 4 5 3 3 4 3 2 2 1 3 2 3
9 9 8 7 8 8 9 10 9 8 8 10 10 11 10 8 8 8 9 7 6 5 6 6 6 5 6 6 5 6 6 5 5 4 4 4 4 4 5 6 6 6 6 6 5 5 4 4 4 5 4 4 3 4 5 4 5 3 3 5 3 2 2 2 1 2 0 2 3 2 3 2 3 3 2 3 3 3 2 2 1 1 1 2 2
6 8 9 8 8 9 9 9 9 7 7 9 9 10 9 8 9 9 9 8 8 7 7 6 6 5 6 6 6 6 6 6 6 5 5 5 5 6 6 5 4 4 4 4 5 6 5 5 4 3 4 6 5 5 4 3 4 4 4 5 6 7 6 5 5 4 4 2 2 4 4 4 4 3 1 1 2 2 1 1 1 1 1 2 2
Wind_Direction
211 173 142 142 162 153 148 142 140 141 142 140 138 135 132 131 129 128 126 125 121 118 116 114 111 107 107 108 108 111 113 115 114 113 112 115 121 123 115 107 106 107 111 108 104 101 101 103 101 105 109 106 106 106 103 103 101 103 104 103 103 102 104 106 106 104 100 99 101 101 107 115 112 111 109 106 106 105 103 95 82 79 70 95 98
175 180 152 153 168 156 155 146 145 146 144 142 139 135 133 131 131 129 127 125 122 120 119 118 114 111 110 110 111 112 115 114 114 115 116 119 122 120 116 114 111 111 110 109 109 107 106 105 104 105 107 108 114 112 113 107 108 107 108 109 110 111 111 108 105 103 102 102 99 97 98 103 112 110 108 106 108 109 107 101 97 94 102 105 106
142 148 159 163 159 158 157 150 147 145 142 138 133 130 130 130 129 129 127 125 124 122 122 120 118 116 114 113 114 115 116 115 115 116 118 122 124 122 120 117 114 112 112 114 114 114 113 114 114 112 112 112 113 113 119 114 112 108 108 110 110 111 113 112 108 104 101 102 103 102 100 104 104 108 110 110 109 107 102 101 109 107 102 106 106
148 153 162 163 150 157 152 149 146 141 137 136 132 130 130 131 131 131 129 129 128 126 125 126 124 121 118 117 117 119 119 120 119 120 121 126 128 125 123 119 118 118 119 117 115 115 115 114 113 115 115 113 114 118 119 97 91 104 111 110 113 111 107 104 103 102 100 99 98 86 63 79 103 109 110 111 111 107 105 107 100 99 108 109 109
155 151 156 153 139 153 148 146 146 141 141 140 139 136 134 134 135 136 135 132 133 132 131 129 127 124 122 121 121 121 123 124 122 120 124 128 130 127 125 123 121 121 120 118 116 114 114 113 112 112 113 111 111 114 113 107 106 112 111 108 109 113 114 110 110 106 106 104 101 87 82 93 105 113 114 113 109 106 106 104 106 108 107 107 104
156 146 148 143 142 150 147 149 146 145 144 146 143 140 138 138 139 137 138 135 136 135 134 132 130 128 125 124 123 125 128 126 125 128 128 131 131 128 128 127 125 126 127 123 121 120 116 112 112 110 106 107 109 109 107 110 110 111 108 93 102 113 116 116 111 108 105 103 92 79 90 92 95 111 115 113 113 112 110 107 106 107 108 108 109
147 146 147 142 142 149 149 147 146 147 148 146 145 141 139 140 139 138 138 141 140 139 137 135 132 131 129 128 127 129 130 132 131 132 135 135 135 131 131 129 129 130 131 130 126 118 115 111 107 103 101 101 103 101 102 108 109 113 112 107 112 120 128 132 118 101 91 56 58 90 91 85 83 102 119 119 119 118 115 110 104 98 103 97 91
142 145 142 138 137 152 147 146 149 151 151 148 147 145 143 142 143 141 140 142 139 137 140 136 134 134 133 132 131 134 136 138 136 134 135 135 135 134 131 132 133 136 135 131 130 126 119 109 99 91 87 88 89 88 90 100 110 112 114 116 112 115 128 146 155 137 115 96 105 101 102 107 110 116 123 124 122 121 118 112 109 105 107 103 99
147 146 139 139 148 153 151 152 151 153 153 152 151 148 146 145 145 143 141 141 146 139 141 140 137 135 134 135 136 138 139 139 135 136 138 141 137 137 137 135 136 139 138 138 134 127 119 103 82 68 65 66 66 62 61 72 88 101 104 104 105 101 114 146 186 196 150 146 111 113 117 127 153 144 127 125 122 119 115 107 105 108 103 95 100
140 138 135 133 147 156 153 151 151 152 152 152 150 150 149 148 148 145 145 148 146 145 144 146 141 137 136 138 138 139 139 140 141 142 141 141 138 138 138 137 137 140 143 142 139 132 124 102 78 50 39 42 40 42 44 45 55 64 72 72 74 73 64 326 229 193 162 147 134 126 150 137 119 107 131 130 126 118 111 106 100 105 113 121 138
132 126 128 136 151 155 154 150 150 152 154 153 152 151 150 150 147 147 149 151 148 146 146 146 145 140 138 138 140 140 139 142 142 143 143 143 140 138 141 141 137 138 139 138 141 137 130 109 60 37 26 22 24 27 29 30 33 40 45 52 51 39 12 348 41 181 138 140 136 152 153 132 115 137 137 134 129 124 119 119 119 116 117 114 114
119 116 127 136 156 155 151 150 151 154 155 156 155 153 153 152 150 149 152 153 152 147 148 145 144 144 142 142 145 145 143 146 148 150 148 146 145 145 145 144 141 140 138 141 147 143 125 111 71 28 12 9 14 16 19 21 21 22 29 36 37 22 8 23 73 115 127 134 145 157 128 122 141 145 139 135 131 128 122 119 122 124 123 124 116
109 107 120 123 131 155 149 152 156 159 160 158 158 158 156 157 154 154 156 154 154 149 151 149 153 151 150 151 150 150 149 151 151 153 152 150 150 151 151 149 149 148 147 149 143 134 130 120 111 38 2 2 5 10 16 13 10 13 17 32 33 20 21 43 96 114 122 129 135 134 140 156 150 147 148 149 137 134 137 133 131 129 127 129 120
95 64 62 113 142 157 159 163 167 167 166 163 162 160 161 160 159 159 158 156 156 155 157 157 158 159 162 157 155 154 154 153 154 156 156 154 154 156 155 153 156 160 157 146 144 137 138 138 143 84 2 358 1 10 11 8 7 7 9 35 36 29 35 53 90 89 103 117 135 152 152 154 162 147 149 147 147 144 136 139 129 136 141 137 136
93 108 162 186 171 173 170 172 170 169 166 165 163 164 165 164 163 162 158 159 159 157 161 159 164 162 166 161 159 157 157 156 157 160 160 157 158 161 160 160 163 168 166 160 153 146 149 163 157 56 5 358 359 4 6 4 8 4 4 30 38 36 45 46 63 100 111 118 168 158 152 163 157 151 154 163 160 153 142 144 137 140 144 137 128
129 167 181 187 170 168 164 171 169 168 166 165 164 164 165 165 163 161 160 161 162 162 165 167 170 166 168 162 163 158 158 160 160 161 162 163 161 164 166 168 170 172 176 177 148 149 157 169 190 353 4 357 357 358 356 356 3 0 356 16 32 36 37 75 57 118 122 128 197 171 162 183 158 153 145 159 178 168 146 138 145 148 140 146 143
182 190 180 169 156 149 154 161 169 168 168 168 167 166 166 160 158 162 163 163 163 166 169 170 173 173 169 162 164 160 160 163 162 162 164 166 166 167 171 175 177 179 187 189 146 151 157 169 194 337 351 353 351 346 344 352 354 353 351 353 15 22 23 75 111 136 128 147 177 202 183 179 154 147 151 155 169 163 150 154 153 148 137 135 141
194 160 135 155 147 148 160 164 172 169 174 172 171 168 162 157 162 164 165 165 165 166 170 172 172 172 171 166 165 163 165 166 162 164 166 167 169 169 170 174 179 183 167 152 154 156 159 171 211 333 337 333 331 334 335 341 347 343 338 340 351 5 9 73 129 137 143 164 170 211 169 168 154 152 151 148 156 163 168 167 165 159 148 150 156
103 98 120 143 155 150 160 168 169 173 176 170 168 169 166 164 169 166 168 168 168 168 168 171 174 177 170 172 169 166 169 168 164 164 166 168 170 169 172 177 180 186 178 172 171 168 185 190 212 265 315 317 315 320 326 331 329 328 320 319 325 16 17 69 151 151 154 149 167 176 193 169 159 159 155 154 162 162 167 162 161 166 158 157 162
93 131 123 179 180 162 157 167 174 177 176 168 165 168 174 171 171 169 170 170 170 171 168 171 175 178 170 177 170 168 171 171 167 167 168 168 170 167 172 170 176 186 197 185 190 189 210 216 227 259 302 307 308 312 322 321 319 316 313 314 331 42 351 276 139 145 139 154 161 169 201 170 165 163 160 161 166 168 160 172 177 176 179 170 172
108 125 162 200 203 166 163 169 183 181 171 159 164 170 182 176 172 171 171 171 170 170 168 173 175 175 172 176 172 168 168 167 167 164 170 166 172 174 174 170 170 182 200 188 191 202 216 232 244 263 294 303 304 314 323 323 322 319 316 314 14 32 1 71 103 128 143 156 156 181 195 170 169 169 168 164 163 175 169 182 191 177 173 171 186
162 160 176 203 205 191 174 180 182 175 163 166 170 167 184 174 175 175 172 172 171 171 170 170 175 165 172 175 156 147 140 140 151 166 148 169 175 178 177 173 171 178 185 191 196 210 225 233 243 265 283 292 302 324 325 323 320 320 320 324 55 11 41 96 107 130 137 150 166 203 186 172 171 174 176 171 164 176 180 187 200 185 178 187 198
167 161 181 193 203 197 192 183 168 159 160 169 171 169 175 156 174 168 170 173 177 168 161 170 156 160 155 139 148 138 151 151 156 166 152 175 177 182 180 178 174 177 186 193 202 214 224 231 244 263 272 283 314 327 320 315 316 322 330 341 87 305 108 113 126 140 152 164 176 202 180 176 177 176 178 180 180 174 179 192 196 192 189 192 204
176 176 177 193 195 196 199 176 148 154 162 170 159 172 159 153 161 169 163 163 172 159 160 152 154 152 147 145 149 159 156 159 181 177 173 174 184 184 183 182 180 183 188 200 210 219 225 240 250 266 281 303 303 297 309 304 306 315 318 319 48 221 159 144 151 151 162 177 183 194 180 178 177 177 178 179 174 172 184 193 197 204 190 196 209
172 154 168 191 193 192 185 166 148 161 163 165 153 167 157 154 162 166 154 155 167 160 167 152 155 153 151 152 153 154 151 171 171 160 160 175 178 172 182 172 174 173 195 171 195 241 260 256 296 297 279 255 262 269 271 279 288 298 302 309 306 130 229 152 151 152 175 184 184 191 180 179 175 176 177 177 176 180 185 194 202 210 211 209 211
149 163 175 187 195 189 183 170 154 163 167 172 166 177 160 163 165 169 154 162 169 168 174 168 156 159 158 155 150 142 153 168 174 164 167 170 173 175 181 171 176 186 189 174 193 207 246 233 237 251 259 237 239 246 247 261 275 280 280 276 279 140 225 153 156 165 176 184 197 187 180 176 178 178 180 181 182 182 185 195 204 210 214 213 217
176 176 173 185 184 184 187 168 164 160 164 170 160 169 163 174 169 167 158 174 174 169 183 181 166 163 163 162 153 147 162 176 180 176 171 170 178 185 186 180 186 198 198 174 197 201 217 229 232 244 268 294 270 250 255 258 247 258 262 259 258 219 192 165 165 166 168 188 200 183 179 176 177 180 184 188 192 193 199 209 212 206 210 219 224
165 171 181 181 181 187 183 175 172 161 155 157 163 167 157 166 180 173 169 177 171 178 183 182 158 168 168 168 159 161 171 184 188 179 178 174 186 190 184 181 188 206 206 190 197 204 216 224 228 245 258 263 266 256 246 248 242 235 254 257 249 241 182 174 161 163 170 185 195 183 181 179 179 181 188 195 202 204 208 217 215 204 214 227 232
174 180 180 179 188 180 177 184 171 165 158 157 163 159 153 157 178 168 168 185 175 180 178 173 154 163 170 169 166 168 175 183 185 186 164 187 188 188 188 191 192 204 196 213 201 209 217 211 218 229 236 254 258 261 248 253 243 239 235 253 249 228 171 160 158 160 166 184 183 183 182 182 182 185 190 193 200 204 209 213 209 209 212 221 228
188 176 171 186 174 170 182 186 176 169 164 159 155 156 163 163 178 181 176 180 177 178 165 168 157 154 168 173 174 164 173 183 189 176 174 185 187 197 198 198 198 203 197 214 209 207 218 214 217 222 230 242 252 248 227 242 235 245 251 252 260 225 183 158 161 169 174 180 180 186 185 183 184 190 195 197 202 208 212 214 217 214 215 220 225
166 177 177 175 176 168 183 185 175 170 164 163 160 166 164 171 182 185 180 180 173 167 164 158 160 174 168 169 174 171 171 189 191 182 177 176 185 198 212 204 206 209 204 220 210 208 219 228 219 215 216 229 242 260 246 250 238 212 202 204 255 150 156 155 157 163 174 176 180 187 188 187 187 193 199 203 208 211 214 215 218 219 220 222 225
172 181 181 166 168 177 176 183 177 172 164 168 167 170 175 179 181 181 185 181 169 168 163 162 174 183 181 165 164 170 174 191 189 180 177 174 186 202 214 218 222 209 206 218 215 211 208 228 232 229 226 220 258 280 278 198 115 127 166 100 52 59 95 140 157 171 165 175 176 185 187 190 191 194 199 204 212 215 217 219 220 220 224 225 227
187 177 173 167 176 175 173 182 177 174 171 176 179 184 181 180 181 185 182 172 176 169 170 172 174 180 177 166 164 168 176 176 184 181 179 181 190 202 210 221 223 209 212 219 217 218 224 230 240 239 241 231 195 216 90 92 112 85 63 70 73 55 70 113 155 163 167 170 178 183 190 193 194 199 203 207 212 217 221 222 223 226 227 231 235
165 170 162 176 176 172 174 174 183 181 182 178 179 184 186 180 186 182 178 172 178 176 180 176 173 177 176 175 172 175 171 178 177 184 175 175 183 207 212 220 221 208 218 211 209 206 215 211 210 194 185 155 182 144 120 93 79 83 77 90 83 63 76 82 131 166 160 169 173 183 190 197 196 199 207 214 214 218 222 225 226 228 231 235 240
149 159 176 178 172 175 174 179 187 188 183 179 182 185 179 181 182 182 178 175 177 182 184 178 176 180 175 181 180 178 173 178 181 179 189 175 179 194 209 191 183 207 216 208 199 199 189 185 163 185 60 89 133 180 128 138 131 90 67 54 70 69 69 93 104 148 167 170 170 186 193 202 198 201 208 213 222 222 226 230 233 233 234 236 239
163 168 174 170 175 175 179 180 187 187 186 180 177 179 179 182 185 184 176 175 175 185 186 184 183 180 181 177 185 186 175 179 175 174 186 189 194 198 190 180 187 200 165 173 179 194 185 165 126 131 113 96 125 91 89 116 107 109 115 94 106 159 131 113 86 136 170 165 176 183 197 204 202 204 208 214 220 230 231 236 244 251 252 249 245
165 163 165 172 177 179 179 182 186 187 182 173 169 176 175 184 188 187 181 173 176 184 185 182 183 185 183 182 185 192 182 172 166 171 179 191 193 214 213 187 170 73 24 162 177 200 175 172 143 124 140 150 158 133 88 106 100 121 139 116 107 102 97 126 175 171 137 168 188 193 195 207 204 206 210 211 216 223 230 230 230 236 243 250 256
165 166 168 171 178 179 181 184 183 180 173 171 172 177 180 182 189 188 180 178 182 183 179 178 190 189 180 190 186 190 180 176 165 169 181 191 201 207 227 201 123 71 57 151 204 181 179 163 186 173 123 115 140 156 146 139 142 153 155 162 231 62 143 136 191 172 129 152 171 196 205 202 199 202 205 209 208 213 226 235 233 231 231 232 235
163 167 168 174 170 176 175 181 175 168 158 160 166 166 166 179 191 183 183 183 181 180 177 185 186 185 193 191 188 187 179 175 167 170 184 198 201 208 226 219 122 86 44 122 190 182 153 154 176 215 150 145 156 179 174 159 160 160 178 231 257 269 297 247 186 128 168 168 141 133 173 200 193 194 197 206 207 207 212 214 219 219 224 224 225
160 165 168 169 170 169 170 174 175 166 150 151 159 167 168 176 186 200 196 196 187 189 189 192 176 185 200 192 194 187 180 171 169 175 192 201 201 217 216 202 172 123 99 282 202 183 174 161 180 195 209 159 118 157 142 140 103 73 178 350 300 293 305 218 187 200 180 150 126 99 102 166 164 178 192 203 202 206 215 215 222 237 271 242 235
161 164 167 173 171 169 167 180 175 166 160 163 167 172 181 179 192 199 197 188 191 188 188 193 191 191 192 195 189 184 187 177 171 173 191 200 198 208 230 227 198 154 148 194 226 195 178 162 169 175 198 201 151 43 91 125 119 107 19 14 341 323 315 200 214 209 200 167 166 127 133 124 169 185 205 199 199 209 214 216 220 215 225 217 223
175 169 174 175 171 167 173 174 170 174 175 175 173 178 185 188 186 193 188 185 187 194 195 193 199 196 197 198 192 184 187 183 177 179 185 188 179 188 215 229 201 190 181 193 187 139 124 131 131 153 234 187 177 125 175 119 35 161 151 318 337 325 305 333 320 266 183 177 184 185 181 164 190 205 207 207 216 218 214 208 218 212 232 243 241
171 176 174 167 171 172 177 172 174 176 178 175 178 184 181 187 190 186 185 175 193 193 191 184 188 198 200 199 199 193 189 192 189 183 184 190 182 179 211 221 209 192 162 175 135 108 115 121 144 165 125 27 101 81 151 159 156 115 102 77 328 12 326 358 326 260 218 201 181 197 202 198 207 208 206 215 220 230 249 212 236 227 229 242 245
168 172 173 174 174 178 178 176 177 180 179 181 185 183 175 168 172 167 171 175 177 176 170 162 177 186 202 189 194 188 192 197 197 199 184 188 182 188 196 219 220 200 166 189 180 162 123 114 121 169 149 129 17 171 17 107 131 133 352 177 212 121 343 307 281 285 222 208 200 218 222 220 222 231 244 239 236 228 226 176 214 222 202 224 235
176 180 178 177 180 181 181 177 177 182 184 183 182 170 165 155 146 136 141 130 146 184 183 187 185 193 190 193 198 185 190 193 195 197 196 175 166 174 164 211 260 62 49 11 287 207 190 168 160 144 170 164 199 167 263 164 147 138 138 99 45 22 220 241 340 292 344 338 250 235 240 243 238 239 237 247 243 234 233 223 224 198 186 198 219
182 186 184 181 174 177 175 176 176 180 184 185 178 168 173 167 161 161 163 174 181 187 191 187 180 189 197 190 191 188 184 191 189 187 191 155 129 104 120 201 186 150 156 179 229 222 177 168 184 172 180 195 161 166 166 221 173 155 141 153 163 172 188 244 81 287 324 208 275 245 252 246 234 229 234 240 235 232 222 244 232 222 201 201 223
188 176 178 182 179 175 175 175 177 180 182 183 175 172 171 176 181 181 177 181 184 199 196 189 189 197 177 180 189 178 182 186 198 187 174 156 134 138 170 196 190 183 180 195 216 205 191 191 178 171 191 176 143 171 190 174 59 325 202 182 145 141 145 120 222 120 352 322 353 292 276 243 240 246 247 253 266 275 264 229 221 211 188 184 212
165 163 176 180 183 182 176 177 177 180 184 179 178 178 176 179 183 186 182 184 190 189 187 186 173 178 181 181 173 187 185 188 190 190 171 161 153 161 168 184 197 199 188 198 214 207 187 195 175 175 158 172 180 181 192 174 164 224 177 195 204 172 150 100 136 158 171 227 302 313 276 268 269 256 249 262 272 262 244 240 227 162 158 177 188
168 168 179 181 177 180 178 178 181 183 184 181 177 181 180 180 184 182 185 189 180 167 170 172 173 179 186 179 181 186 186 188 191 186 172 162 162 175 181 178 194 201 208 207 215 200 194 191 186 170 180 180 181 178 151 191 183 177 131 156 119 166 155 152 146 128 155 166 267 261 271 313 272 255 253 246 241 249 240 235 226 181 170 168 186
176 173 166 164 170 173 179 181 187 186 183 183 180 181 182 178 182 188 187 179 169 155 161 175 182 180 190 195 191 183 184 186 188 183 170 167 174 184 194 188 192 201 208 205 203 203 202 201 197 191 185 189 179 177 192 183 178 164 157 147 147 131 136 198 214 167 223 187 195 226 232 244 275 278 215 235 245 238 232 262 286 288 155 159 150
176 175 171 164 163 172 175 181 187 182 181 185 182 183 184 183 189 190 190 180 173 161 165 180 179 183 194 201 199 195 180 189 181 182 175 173 184 191 196 198 186 203 221 204 206 205 202 196 188 172 184 193 189 191 204 179 153 166 166 167 173 175 179 182 199 195 172 185 203 254 250 221 215 266 282 187 225 253 207 205 281 259 164 141 116